Flag for Sweden Weather past 2 weeks in Halmstad, Sweden

Now
54 °F

Scattered clouds.


Feels Like: 49 °F
Forecast: 47 / 52 °F
Wind: 16 mph from West

Location: Halmstad Swedish Air Force Base

Current Time: May 29, 2015 at 3:28:33 PM

Latest Report: May 29, 2015 at 2:50 PM


Visibility: N/A

Pressure: 29.77 "Hg

Humidity: 67%

Dew point: 43 °F

Location of HalmstadLocation

Historic Weather in Halmstad — Graph

°F

Halmstad temperature yesterday

Maximum temperature yesterday: 57 °F (at 4:50 PM)
Minimum temperature yesterday: 45 °F (at 3:20 AM)
Average temperature yesterday: 51 °F

Past Weeks' High & Low Weather Summary

 TemperatureHumidityPressure
High57 °F (May 14, 1:20 PM)94% (May 16, 7:20 PM)30.18 "Hg (May 16, 7:20 PM)
Low37 °F (May 21, 4:50 AM)38% (May 15, 9:20 AM)29.50 "Hg (May 19, 4:20 AM)
Average50 °F73%29.90 "Hg
* Reported May 14 1:20 PM — May 29 1:50 PM, Halmstad, Weather by CustomWeather, © 2015

Note: Actual official high and low records may vary slightly from our data, if they occured in-between our weather recording intervals... More about our weather records

Advertising

Halmstad weather history for previous 24 hours

 ConditionsComfort  
Time TempWeatherWind HumidityBarometerVisibility
1:50 PM
Fri, May 29
55 °FScattered clouds.16 mph63%29.77 "HgN/A
1:20 PM57 °FPassing clouds.18 mph59%29.77 "HgN/A
12:50 PM55 °FScattered clouds.18 mph67%29.77 "HgN/A
12:20 PM55 °FBroken clouds.18 mph67%29.77 "HgN/A
11:50 AM55 °FBroken clouds.18 mph67%29.77 "HgN/A
11:20 AM55 °FBroken clouds.21 mph67%29.77 "HgN/A
10:50 AM54 °FBroken clouds.20 mph72%29.77 "HgN/A
10:20 AM52 °FBroken clouds.20 mph77%29.77 "HgN/A
9:50 AM54 °FBroken clouds.18 mph72%29.77 "HgN/A
9:20 AM52 °FBroken clouds.20 mph72%29.77 "HgN/A
8:50 AM52 °FPartly sunny.18 mph72%29.77 "HgN/A
8:20 AM50 °FScattered clouds.18 mph71%29.77 "HgN/A
7:50 AM50 °FBroken clouds.17 mph71%29.77 "HgN/A
7:20 AM50 °FBroken clouds.17 mph71%29.77 "HgN/A
6:50 AM48 °FPartly sunny.16 mph76%29.77 "HgN/A
6:20 AM48 °FPartly sunny.14 mph71%29.74 "HgN/A
5:50 AM48 °FScattered clouds.14 mph71%29.74 "HgN/A
5:20 AM48 °FPassing clouds.14 mph71%29.74 "HgN/A
4:50 AM46 °FPassing clouds.15 mph76%29.74 "HgN/A
4:20 AM48 °FPassing clouds.14 mph71%29.74 "HgN/A
3:50 AM46 °FPassing clouds.12 mph76%29.74 "HgN/A
3:20 AM46 °FPassing clouds.14 mph76%29.74 "HgN/A
2:50 AM46 °FPassing clouds.14 mph76%29.74 "HgN/A
2:20 AM46 °FPassing clouds.14 mph76%29.74 "HgN/A
1:50 AM46 °FPassing clouds.15 mph76%29.74 "HgN/A
1:20 AM46 °FCool.14 mph76%29.74 "HgN/A
12:50 AM46 °FPassing clouds.10 mph76%29.74 "HgN/A
11:50 PM
Thu, May 28
48 °FPartly cloudy.14 mph76%29.71 "HgN/A
11:20 PM48 °FPassing clouds.14 mph76%29.71 "HgN/A
10:50 PM48 °FPassing clouds.14 mph76%29.71 "HgN/A
10:20 PM50 °FScattered clouds.18 mph71%29.71 "HgN/A
9:50 PM50 °FScattered clouds.15 mph76%29.71 "HgN/A
9:20 PM50 °FLight rain. Scattered clouds.15 mph71%29.71 "HgN/A
8:50 PM52 °FScattered clouds.16 mph77%29.68 "HgN/A
8:20 PM54 °FScattered clouds.15 mph72%29.68 "HgN/A
7:50 PM54 °FScattered clouds.16 mph72%29.68 "HgN/A
7:20 PM54 °FScattered clouds.16 mph72%29.68 "HgN/A
6:50 PM55 °FScattered clouds.18 mph67%29.68 "HgN/A
6:20 PM55 °FPassing clouds.16 mph67%29.68 "HgN/A
5:50 PM57 °FPassing clouds.20 mph67%29.68 "HgN/A
5:20 PM57 °FPassing clouds.18 mph67%29.68 "HgN/A
4:50 PM57 °FPassing clouds.20 mph72%29.68 "HgN/A
4:20 PM55 °FPassing clouds.17 mph77%29.68 "HgN/A
3:50 PM54 °FScattered clouds.16 mph77%29.68 "HgN/A
3:20 PM52 °FLight rain. Scattered clouds.20 mph82%29.68 "HgN/A
Weather by CustomWeather, © 2015

See weather overviewHow to use our weather pages